Weather in Haskovo

Bulgaria     41°56′28″N   25°33′17″E
temp.,
°C
wind,
m/s
gust,
m/s
humid.,
%
clouds,
%
prec.,
mm/h
press.,
hPa
HPBL,
m
24 may, tue
tue2400:00+17e3670100 0.0 1012258
03:00+12ne23907 0.0 101242
06:00+11wsw009185 0.0 101310
09:00+16ene21705 0.0 1013378
12:00+21ese225512 0.0 1013927
15:00+25ese32495 0.1 10121353
18:00+26ese235162 0.0 10111440
21:00+19sse2279100 0.3 101230
25 may, wed
wed2500:00+14nne3491100 0.2 1015112
03:00+13ne2291100 0.3 101566
06:00+12ne119553 0.0 101712
09:00+16ene22725 0.4 1018393
12:00+22ese32565 0.0 1017797
15:00+26ese33505 0.0 10161069
18:00+25s3361100 0.1 1016256
21:00+19wsw2276100 0.9 101718
26 may, thu
thu2600:00+18wnw61285100 0.1 1020305
03:00+16wsw1190100 0.1 101811
06:00+16ssw018931 0.0 101811
09:00+20nnw2276100 0.0 1019288
12:00+27wnw33515 0.0 1019743
15:00+30nw24360 0.0 10181393
18:00+31w243782 0.0 10171773
21:00+21ssw61085100 1.9 1018199
27 may, fri
fri2700:00+19wsw1175100 0.4 102011
03:00+17wnw22850 0.4 101923
06:00+16w2289100 0.0 101923
09:00+21nw2371100 0.0 1020323
12:00+26e2252100 0.0 1018970
15:00+29se32405 0.0 10171868
18:00+24ssw5762100 0.0 1015274
21:00+17w4893100 2.8 1016199
28 may, sat
sat2800:00+16wsw2290100 0.0 101619
03:00+16wsw1186100 0.0 101511
06:00+15se018770 0.0 101411
09:00+20nw22725 0.0 1014294
12:00+26wnw225299 0.0 1013770
15:00+29wsw1142100 0.0 10111570
18:00+29sse444480 0.0 10091595
21:00+23w116330 0.0 101016